Tracking 27107 objects as of 22-Mar-2023
HD Live streaming from Space Station
objects crossing your sky now

GLOBAL-14

Track GLOBAL-14 now!
10-day predictions


NORAD ID: 49469
Int'l Code: 2021-106A
Perigee: 424.8 km
Apogee: 443.4 km
Inclination: 42.0 °
Period: 93.1 minutes
Semi major axis: 6805 km
RCS: Unknown
Launch date: November 18, 2021
Source: United States (US)
Launch site: Rocket Lab Launch Complex (RLLC)
Your satellite tracking list
Your tracking list is empty




NASA's NSSDC Master Catalog

Two Line Element Set (TLE):
1 49469U 21106A   23080.22080670  .00038848  00000-0  76295-3 0  9993
2 49469  42.0139  17.6671 0013720 206.1351 153.8800 15.46501574 75546
Source of the keplerian elements: AFSPC